Location: Middle Street
(51.7167°N, 0.0333°E)
Time: 23:04:34
(UTC+00:00)

CZ-3B R/B - Pass Details

Date: 20 January 2021
Orbit: 278 x 17415 km, 54.8° (Epoch: 01 March)

Event Time Altitude Azimuth Distance (km) Brightness Sun altitude
Rises 17:05:11 0° 288° (WNW) 1,945 5.4 -5.9°
Reaches altitude 10° 17:06:43 10° 295° (WNW) 1,140 4.1 -6.1°
Maximum altitude 17:08:42 48° 13° (NNE) 478 1.3 -6.4°
Drops below altitude 10° 17:12:16 10° 91° (E) 2,043 4.2 -6.9°
Enters shadow 17:14:03 - 94° (E) 2,963 5.0 -7.2°
